Szeged, Hungary

8:03 PM CEST on September 30, 2016 (GMT +0200)
Szeged

Weather History for LHUD - October, 2012

Change the Weather History Date:

Sunday, October 7, 2012

  Actual Average (LRAR) Record (LRAR)
Temperature  
Mean Temperature 62 °F -  
Max Temperature 72 °F 67 °F 80 °F (1998)
Min Temperature 51 °F 47 °F 33 °F (2013)
Degree Days  
Heating Degree Days 4    
Growing Degree Days 12 (Base 50)    
Moisture  
Dew Point 54 °F    
Average Humidity 75    
Maximum Humidity 94    
Minimum Humidity 57    
Precipitation  
Precipitation 0.28 in - - ()
Sea Level Pressure  
Sea Level Pressure 29.89 in    
Wind  
Wind Speed 7 mph ()    
Max Wind Speed 28 mph    
Max Gust Speed 41 mph    
Visibility 6.8 miles    
Events Rain , Thunderstorm    
Averages and records for this station are not official NWS values.
T = Trace of Precipitation, MM = Missing Value Source: Averaged Metar Reports

Daily Weather History Graph

Daily Weather History Graph

Search for Another Location

Airport or City:

Trip Planner

Search our weather history database for the weather conditions in past years. The results will help you decide how hot, cold, wet, or windy it might be!

Date:

Astronomy

Oct. 07, 2012 Rise Set
Actual Time 6:46 AM CEST 6:07 PM CEST
Civil Twilight 6:16 AM CEST 6:37 PM CEST
Nautical Twilight 5:41 AM CEST 7:12 PM CEST
Astronomical Twilight 5:06 AM CEST 7:47 PM CEST
Moon 10:48 PM CEST (10/7) 1:25 PM CEST (10/7)
Length of Visible Light 12h 21m
Length of Day
11h 21m
Waning Gibbous, 58% of the Moon is Illuminated
Oct 7
Waning Gibbous
Oct 8
Last Quarter
Oct 15
New
Oct 22
First Quarter
Oct 29
Full

Hourly Weather History & Observations

Time (CEST) Temp. Dew Point Humidity Pressure Visibility Wind Dir Wind Speed Gust Speed Precip Events Conditions
12:45 AM 55.4 °F 50.0 °F 82% 30.01 in - South 3.5 mph - N/A   Clear
1:45 AM 55.4 °F 50.0 °F 82% 30.01 in - South 5.8 mph - N/A   Clear
2:00 AM 55 °F 50 °F 78% 30.01 in 9 mi South 4.5 mph - -   Partly Cloudy
2:45 AM 53.6 °F 50.0 °F 88% 30.01 in - South 4.6 mph - N/A   Clear
3:45 AM 53.6 °F 50.0 °F 88% 29.98 in - SSW 4.6 mph - N/A   Clear
4:45 AM 53.6 °F 50.0 °F 88% 29.98 in - WSW 5.8 mph - N/A   Clear
5:45 AM 59.0 °F 53.6 °F 82% 29.98 in - SW 9.2 mph - N/A   Clear
6:15 AM 57.2 °F 53.6 °F 88% 29.95 in - SSW 9.2 mph - N/A   Clear
6:45 AM 57.2 °F 53.6 °F 88% 29.95 in - SSW 6.9 mph - N/A   Clear
7:15 AM 53.6 °F 51.8 °F 94% 29.95 in - SW 1.2 mph - N/A   Clear
7:45 AM 57.2 °F 53.6 °F 88% 29.95 in - SSW 3.5 mph - N/A   Clear
8:00 AM 57 °F 54 °F 85% 29.96 in 9 mi SSW 2.2 mph - -   Partly Cloudy
8:15 AM 59.0 °F 55.4 °F 88% 29.95 in - SSW 4.6 mph - N/A   Clear
8:45 AM 62.6 °F 55.4 °F 77% 29.95 in - SSW 4.6 mph - N/A   Clear
9:15 AM 62.6 °F 57.2 °F 82% 29.95 in - South 3.5 mph - N/A   Clear
9:45 AM 64.4 °F 57.2 °F 77% 29.95 in - South 2.3 mph - N/A   Clear
10:15 AM 64.4 °F 57.2 °F 77% 29.95 in - SSW 4.6 mph - N/A   Clear
10:45 AM 66.2 °F 57.2 °F 73% 29.95 in - SSW 4.6 mph - N/A   Clear
11:15 AM 66.2 °F 57.2 °F 73% 29.92 in - SW 6.9 mph - N/A   Clear
11:45 AM 66.2 °F 57.2 °F 73% 29.92 in - SW 6.9 mph - N/A   Clear
12:15 PM 66.2 °F 57.2 °F 73% 29.92 in - SSW 4.6 mph - N/A   Clear
12:45 PM 68.0 °F 57.2 °F 68% 29.89 in - SSW 4.6 mph - N/A   Clear
1:15 PM 68.0 °F 57.2 °F 68% 29.89 in - SW 5.8 mph - N/A   Clear
1:45 PM 68.0 °F 57.2 °F 68% 29.89 in - WSW 6.9 mph - N/A   Clear
2:00 PM 68 °F 57 °F 60% 29.87 in 16 mi WSW 6.7 mph - -   Partly Cloudy
2:15 PM 68.0 °F 57.2 °F 68% 29.89 in - WSW 9.2 mph - N/A   Clear
2:45 PM 69.8 °F 57.2 °F 64% 29.86 in - SW 9.2 mph - N/A   Clear
3:15 PM 69.8 °F 55.4 °F 60% 29.83 in - SW 5.8 mph - N/A   Clear
3:45 PM 71.6 °F 55.4 °F 57% 29.83 in - SW 5.8 mph - N/A   Clear
4:15 PM 73.4 °F 57.2 °F 57% 29.83 in - SW 8.1 mph - N/A   Clear
4:45 PM 71.6 °F 55.4 °F 57% 29.80 in - SW 8.1 mph - N/A   Clear
5:15 PM 71.6 °F 55.4 °F 57% 29.80 in - WSW 8.1 mph - N/A   Clear
5:45 PM 68.0 °F 55.4 °F 64% 29.80 in 6.2 mi SW 5.8 mph - N/A   Partly Cloudy
6:15 PM 66.2 °F 55.4 °F 68% 29.80 in 6.2 mi SSW 5.8 mph - N/A   Scattered Clouds
6:45 PM 66.2 °F 55.4 °F 68% 29.80 in 6.2 mi SSW 8.1 mph - N/A   Scattered Clouds
7:15 PM 64.4 °F 55.4 °F 73% 29.80 in 6.2 mi SSW 6.9 mph - N/A   Scattered Clouds
7:45 PM 66.2 °F 55.4 °F 68% 29.77 in 6.2 mi SSW 8.1 mph - N/A   Scattered Clouds
8:00 PM 66 °F 55 °F 59% 29.77 in 16 mi SSW 8.9 mph - -   Partly Cloudy
8:09 PM 66.2 °F 55.4 °F 68% 29.77 in 6.2 mi SSW 9.2 mph - N/A Thunderstorm Thunderstorm
8:15 PM 68.0 °F 55.4 °F 64% 29.77 in 6.2 mi SSW 10.4 mph - N/A Thunderstorm Thunderstorm
8:25 PM 64.4 °F 57.2 °F 77% 29.80 in - West 11.5 mph 32.2 mph N/A   Unknown
8:26 PM 64.4 °F 57.2 °F 77% 29.80 in 0.9 mi West 13.8 mph 41.4 mph N/A Rain , Thunderstorm Thunderstorms and Rain
8:27 PM 62.6 °F 57.2 °F 82% 29.83 in 1.2 mi West 16.1 mph 41.4 mph N/A Rain , Thunderstorm Thunderstorms and Rain
8:45 PM 59.0 °F 53.6 °F 82% 29.83 in 6.2 mi NW 27.6 mph - N/A Rain , Thunderstorm Thunderstorms and Rain
9:15 PM 59.0 °F 53.6 °F 82% 29.86 in 6.2 mi WNW 19.6 mph - N/A Rain Light Rain
9:45 PM 57.2 °F 53.6 °F 88% 29.86 in 6.2 mi WNW 17.3 mph - N/A   Overcast
10:19 PM 53.6 °F 50.0 °F 88% 29.92 in - WNW 25.3 mph 39.1 mph N/A   Unknown
10:21 PM 53.6 °F 50.0 °F 88% 29.92 in 3.1 mi WNW 25.3 mph 40.3 mph N/A Rain Light Rain Showers
10:45 PM 53.6 °F 48.2 °F 82% 29.92 in 6.2 mi WNW 23.0 mph - N/A   Overcast
11:45 PM 51.8 °F 44.6 °F 76% 29.95 in 6.2 mi WNW 21.9 mph 33.4 mph N/A   Mostly Cloudy